Model,HI981420,,,,,,,,,,,,,,,,,,
Serial #,GA05380114,,,,,,,,,,,,,,,,,,
Instrument ID,0,,,,,,,,,,,,,,,,,,
Firmware,1.03,,,,,,,,,,,,,,,,,,
,,,,,,,,,,,,,,,,,,,
pH Calibration,,,,,,,,,,,,,,,,,,,
##,Date,Time,Offset,Slope,Buffer 1,Buffer 2,,,,,,,,,,,,,
1,2023/10/30,8:06:22,22.9mV,100.00%,7.01pH,,,,,,,,,,,,,,
2,2023/10/30,8:02:19,---,---,---,---,Calibration cleared,,,,,,,,,,,,
3,2022/11/4,10:13:02,8.0mV,95.70%,4.01pH,7.01pH,,,,,,,,,,,,,
4,---,---,---,---,---,---,,,,,,,,,,,,,
5,---,---,---,---,---,---,,,,,,,,,,,,,
EC Calibration,,,,,,,,,,,,,,,,,,,
##,Date,Time,Cell coefficient,Standard,,,,,,,,,,,,,,,
1,2023/8/30,8:29:13,95.30%,1.41mS/cm,,,,,,,,,,,,,,,
2,2022/11/4,10:14:25,91.30%,5.00mS/cm,,,,,,,,,,,,,,,
3,---,---,---,---,,,,,,,,,,,,,,,
4,---,---,---,---,,,,,,,,,,,,,,,
5,---,---,---,---,,,,,,,,,,,,,,,
,,,,,,,,,,,,,,,,,,,
,,,,,,,,,,,,,,,,,,,
Date,Time,Min,Unit,Max,Unit,Avg,Unit,Min,Unit,Max,Unit,Avg,Unit,Min,Unit,Max,Unit,Avg,Unit
2023/11/22,1:55:44,8.03,pH,8.04,pH,8.03,pH,4.41,mS/cm,4.43,mS/cm,4.41,mS/cm,16.4,�C,16.5,�C,16.5,�C
2023/11/22,2:10:44,8.03,pH,8.04,pH,8.03,pH,4.41,mS/cm,4.42,mS/cm,4.41,mS/cm,16.4,�C,16.4,�C,16.4,�C
2023/11/22,2:25:44,8.03,pH,8.04,pH,8.03,pH,4.41,mS/cm,4.43,mS/cm,4.41,mS/cm,16.3,�C,16.4,�C,16.3,�C
2023/11/22,2:40:44,8.03,pH,8.04,pH,8.03,pH,4.41,mS/cm,4.43,mS/cm,4.41,mS/cm,16.3,�C,16.4,�C,16.3,�C
2023/11/22,2:55:44,8.03,pH,8.03,pH,8.03,pH,4.41,mS/cm,4.44,mS/cm,4.42,mS/cm,16.3,�C,16.3,�C,16.3,�C
2023/11/22,3:10:44,8.02,pH,8.03,pH,8.02,pH,4.4,mS/cm,4.46,mS/cm,4.42,mS/cm,16.3,�C,16.3,�C,16.3,�C
2023/11/22,3:25:44,8.02,pH,8.03,pH,8.02,pH,4.41,mS/cm,4.43,mS/cm,4.42,mS/cm,16.2,�C,16.3,�C,16.3,�C
2023/11/22,3:41:00,8.03,pH,8.04,pH,8.03,pH,4.42,mS/cm,4.43,mS/cm,4.42,mS/cm,16.2,�C,16.2,�C,16.2,�C
2023/11/22,3:56:00,8.03,pH,8.03,pH,8.03,pH,4.39,mS/cm,4.45,mS/cm,4.42,mS/cm,16.2,�C,16.2,�C,16.2,�C
2023/11/22,4:11:00,8.03,pH,8.03,pH,8.03,pH,4.41,mS/cm,4.43,mS/cm,4.41,mS/cm,16.2,�C,16.2,�C,16.2,�C
2023/11/22,4:26:00,8.03,pH,8.03,pH,8.03,pH,4.41,mS/cm,4.42,mS/cm,4.41,mS/cm,16.2,�C,16.2,�C,16.2,�C
2023/11/22,4:41:00,8.02,pH,8.05,pH,8.03,pH,4.4,mS/cm,4.42,mS/cm,4.4,mS/cm,16,�C,16.2,�C,16.1,�C
2023/11/22,4:56:00,8.03,pH,8.05,pH,8.03,pH,4.4,mS/cm,4.42,mS/cm,4.4,mS/cm,16.1,�C,16.1,�C,16.1,�C
2023/11/22,5:11:00,7.72,pH,8.06,pH,7.93,pH,4.31,mS/cm,4.44,mS/cm,4.41,mS/cm,16.1,�C,17.5,�C,16.7,�C
2023/11/22,5:26:00,7.68,pH,7.72,pH,7.69,pH,4.41,mS/cm,4.44,mS/cm,4.42,mS/cm,17.5,�C,18.1,�C,17.8,�C
2023/11/22,5:41:00,7.69,pH,7.74,pH,7.71,pH,4.42,mS/cm,4.45,mS/cm,4.43,mS/cm,18,�C,18.1,�C,18,�C
2023/11/22,5:56:00,7.74,pH,7.78,pH,7.76,pH,4.43,mS/cm,4.45,mS/cm,4.44,mS/cm,18,�C,18.2,�C,18.1,�C
2023/11/22,6:11:00,7.78,pH,7.81,pH,7.79,pH,4.41,mS/cm,4.43,mS/cm,4.42,mS/cm,18.2,�C,18.4,�C,18.3,�C
2023/11/22,6:26:00,7.81,pH,7.83,pH,7.81,pH,4.42,mS/cm,4.44,mS/cm,4.42,mS/cm,18.4,�C,18.5,�C,18.5,�C
2023/11/22,6:41:00,7.83,pH,7.84,pH,7.83,pH,4.42,mS/cm,4.44,mS/cm,4.43,mS/cm,18.5,�C,18.7,�C,18.6,�C
2023/11/22,6:56:00,7.84,pH,7.85,pH,7.84,pH,4.42,mS/cm,4.44,mS/cm,4.42,mS/cm,18.7,�C,19,�C,18.8,�C
2023/11/22,7:11:00,7.85,pH,7.85,pH,7.85,pH,4.41,mS/cm,4.43,mS/cm,4.42,mS/cm,19,�C,19.3,�C,19.1,�C
2023/11/22,7:26:00,7.85,pH,7.85,pH,7.85,pH,4.41,mS/cm,4.43,mS/cm,4.41,mS/cm,19.3,�C,19.8,�C,19.5,�C
2023/11/22,7:41:00,7.85,pH,7.85,pH,7.85,pH,4.41,mS/cm,4.43,mS/cm,4.41,mS/cm,19.8,�C,20.2,�C,20,�C
2023/11/22,7:56:00,7.85,pH,7.86,pH,7.85,pH,4.4,mS/cm,4.42,mS/cm,4.41,mS/cm,20.2,�C,20.5,�C,20.3,�C
2023/11/22,8:11:00,7.86,pH,7.86,pH,7.86,pH,4.4,mS/cm,4.41,mS/cm,4.4,mS/cm,20.5,�C,20.6,�C,20.5,�C
2023/11/22,8:26:00,7.86,pH,7.88,pH,7.86,pH,4.4,mS/cm,4.42,mS/cm,4.4,mS/cm,20.6,�C,20.8,�C,20.8,�C
2023/11/22,8:41:00,7.88,pH,7.88,pH,7.88,pH,4.4,mS/cm,4.42,mS/cm,4.4,mS/cm,20.8,�C,20.9,�C,20.9,�C
2023/11/22,8:56:00,7.88,pH,7.89,pH,7.88,pH,4.4,mS/cm,4.41,mS/cm,4.4,mS/cm,20.8,�C,20.9,�C,20.8,�C
2023/11/22,9:11:00,7.89,pH,7.9,pH,7.89,pH,4.41,mS/cm,4.42,mS/cm,4.41,mS/cm,20.7,�C,20.8,�C,20.8,�C
2023/11/22,9:26:00,7.9,pH,7.91,pH,7.9,pH,4.41,mS/cm,4.42,mS/cm,4.41,mS/cm,20.7,�C,20.8,�C,20.7,�C
2023/11/22,9:41:00,7.91,pH,7.92,pH,7.91,pH,4.41,mS/cm,4.42,mS/cm,4.41,mS/cm,20.7,�C,20.8,�C,20.7,�C
2023/11/22,9:56:00,7.92,pH,7.93,pH,7.92,pH,4.41,mS/cm,4.42,mS/cm,4.41,mS/cm,20.6,�C,20.7,�C,20.7,�C
2023/11/22,10:11:00,7.93,pH,7.93,pH,7.93,pH,4.15,mS/cm,4.41,mS/cm,4.4,mS/cm,20.6,�C,20.6,�C,20.6,�C
2023/11/22,10:26:00,7.93,pH,7.94,pH,7.93,pH,4.38,mS/cm,4.4,mS/cm,4.39,mS/cm,20.5,�C,20.6,�C,20.5,�C
2023/11/22,10:41:00,7.94,pH,7.94,pH,7.94,pH,4.38,mS/cm,4.39,mS/cm,4.38,mS/cm,20.4,�C,20.5,�C,20.5,�C
2023/11/22,10:56:00,7.94,pH,7.95,pH,7.94,pH,4.38,mS/cm,4.41,mS/cm,4.38,mS/cm,20.3,�C,20.4,�C,20.4,�C
2023/11/22,11:11:00,7.95,pH,7.96,pH,7.95,pH,4.4,mS/cm,4.41,mS/cm,4.4,mS/cm,20.2,�C,20.3,�C,20.3,�C
2023/11/22,11:26:00,7.96,pH,7.97,pH,7.96,pH,4.4,mS/cm,4.41,mS/cm,4.4,mS/cm,20.2,�C,20.3,�C,20.3,�C
2023/11/22,11:41:00,7.96,pH,7.96,pH,7.96,pH,4.39,mS/cm,4.41,mS/cm,4.4,mS/cm,20.3,�C,20.4,�C,20.3,�C
2023/11/22,11:56:00,7.96,pH,7.96,pH,7.96,pH,4.39,mS/cm,4.4,mS/cm,4.39,mS/cm,20.4,�C,20.5,�C,20.4,�C
2023/11/22,12:11:00,7.96,pH,7.96,pH,7.96,pH,4.39,mS/cm,4.4,mS/cm,4.39,mS/cm,20.5,�C,20.6,�C,20.5,�C
2023/11/22,12:26:00,7.96,pH,7.96,pH,7.96,pH,4.38,mS/cm,4.4,mS/cm,4.39,mS/cm,20.6,�C,20.8,�C,20.7,�C
2023/11/22,12:41:00,7.95,pH,7.96,pH,7.95,pH,4.38,mS/cm,4.39,mS/cm,4.38,mS/cm,20.8,�C,20.8,�C,20.8,�C
2023/11/22,12:56:00,7.96,pH,7.96,pH,7.96,pH,4.38,mS/cm,4.4,mS/cm,4.39,mS/cm,20.7,�C,20.8,�C,20.7,�C
2023/11/22,13:11:00,7.96,pH,7.97,pH,7.96,pH,4.38,mS/cm,4.4,mS/cm,4.39,mS/cm,20.6,�C,20.7,�C,20.7,�C
2023/11/22,13:26:00,7.96,pH,7.97,pH,7.96,pH,4.38,mS/cm,4.39,mS/cm,4.38,mS/cm,20.6,�C,20.6,�C,20.6,�C
2023/11/22,13:41:00,7.96,pH,7.97,pH,7.96,pH,4.38,mS/cm,4.39,mS/cm,4.38,mS/cm,20.5,�C,20.6,�C,20.5,�C
2023/11/22,13:56:00,7.96,pH,7.97,pH,7.96,pH,4.38,mS/cm,4.39,mS/cm,4.38,mS/cm,20.4,�C,20.5,�C,20.4,�C
2023/11/22,14:11:00,7.96,pH,7.97,pH,7.96,pH,4.38,mS/cm,4.39,mS/cm,4.38,mS/cm,20.3,�C,20.4,�C,20.4,�C
2023/11/22,14:26:00,7.96,pH,7.97,pH,7.96,pH,4.38,mS/cm,4.39,mS/cm,4.38,mS/cm,20.3,�C,20.3,�C,20.3,�C
2023/11/22,14:41:00,7.96,pH,7.97,pH,7.96,pH,4.38,mS/cm,4.39,mS/cm,4.38,mS/cm,20.2,�C,20.3,�C,20.2,�C
2023/11/22,14:56:00,7.97,pH,7.98,pH,7.97,pH,4.38,mS/cm,4.39,mS/cm,4.38,mS/cm,20.1,�C,20.2,�C,20.2,�C
2023/11/22,15:11:00,7.97,pH,7.98,pH,7.97,pH,4.38,mS/cm,4.39,mS/cm,4.38,mS/cm,20,�C,20.1,�C,20.1,�C
2023/11/22,15:26:00,7.97,pH,7.97,pH,7.97,pH,4.38,mS/cm,4.39,mS/cm,4.38,mS/cm,20,�C,20,�C,20,�C
2023/11/22,15:41:00,7.97,pH,7.97,pH,7.97,pH,4.38,mS/cm,4.4,mS/cm,4.39,mS/cm,19.9,�C,20,�C,19.9,�C
2023/11/22,15:56:00,7.97,pH,7.98,pH,7.97,pH,4.39,mS/cm,4.4,mS/cm,4.39,mS/cm,19.8,�C,19.9,�C,19.9,�C
2023/11/22,16:11:00,7.97,pH,7.98,pH,7.97,pH,4.39,mS/cm,4.4,mS/cm,4.39,mS/cm,19.8,�C,19.8,�C,19.8,�C
2023/11/22,16:26:00,7.97,pH,7.97,pH,7.97,pH,4.39,mS/cm,4.4,mS/cm,4.39,mS/cm,19.7,�C,19.8,�C,19.7,�C
2023/11/22,16:41:00,7.97,pH,7.98,pH,7.97,pH,4.39,mS/cm,4.4,mS/cm,4.39,mS/cm,19.6,�C,19.7,�C,19.7,�C
2023/11/22,16:56:00,7.97,pH,7.97,pH,7.97,pH,4.39,mS/cm,4.39,mS/cm,4.39,mS/cm,19.6,�C,19.6,�C,19.6,�C
2023/11/22,17:11:00,7.97,pH,7.98,pH,7.97,pH,4.39,mS/cm,4.4,mS/cm,4.39,mS/cm,19.5,�C,19.6,�C,19.5,�C
2023/11/22,17:26:00,7.97,pH,7.97,pH,7.97,pH,4.38,mS/cm,4.39,mS/cm,4.38,mS/cm,19.4,�C,19.5,�C,19.5,�C
2023/11/22,17:41:00,7.97,pH,7.98,pH,7.97,pH,4.39,mS/cm,4.39,mS/cm,4.39,mS/cm,19.4,�C,19.4,�C,19.4,�C
2023/11/22,17:56:00,7.97,pH,7.97,pH,7.97,pH,4.38,mS/cm,4.4,mS/cm,4.39,mS/cm,19.3,�C,19.4,�C,19.3,�C
2023/11/22,18:11:00,7.97,pH,7.97,pH,7.97,pH,4.39,mS/cm,4.4,mS/cm,4.39,mS/cm,19.2,�C,19.3,�C,19.3,�C
2023/11/22,18:26:00,7.97,pH,7.97,pH,7.97,pH,4.39,mS/cm,4.4,mS/cm,4.39,mS/cm,19.2,�C,19.2,�C,19.2,�C
2023/11/22,18:41:00,7.97,pH,7.97,pH,7.97,pH,4.39,mS/cm,4.4,mS/cm,4.39,mS/cm,19.1,�C,19.2,�C,19.1,�C
2023/11/22,18:56:00,7.97,pH,7.97,pH,7.97,pH,4.39,mS/cm,4.4,mS/cm,4.39,mS/cm,19.1,�C,19.1,�C,19.1,�C
2023/11/22,19:11:00,7.97,pH,7.97,pH,7.97,pH,4.39,mS/cm,4.4,mS/cm,4.39,mS/cm,19,�C,19.1,�C,19,�C
2023/11/22,19:26:00,7.97,pH,7.97,pH,7.97,pH,4.39,mS/cm,4.4,mS/cm,4.39,mS/cm,18.9,�C,19,�C,19,�C
2023/11/22,19:41:00,7.97,pH,7.97,pH,7.97,pH,4.39,mS/cm,4.4,mS/cm,4.39,mS/cm,18.9,�C,18.9,�C,18.9,�C
2023/11/22,19:56:00,7.97,pH,7.97,pH,7.97,pH,4.39,mS/cm,4.4,mS/cm,4.39,mS/cm,18.8,�C,18.9,�C,18.8,�C
2023/11/22,20:11:00,7.97,pH,7.97,pH,7.97,pH,4.39,mS/cm,4.4,mS/cm,4.39,mS/cm,18.8,�C,18.8,�C,18.8,�C
2023/11/22,20:26:00,7.97,pH,7.97,pH,7.97,pH,4.39,mS/cm,4.41,mS/cm,4.39,mS/cm,18.7,�C,18.8,�C,18.7,�C
2023/11/22,20:41:00,7.97,pH,7.97,pH,7.97,pH,4.39,mS/cm,4.4,mS/cm,4.39,mS/cm,18.7,�C,18.7,�C,18.7,�C
2023/11/22,20:56:00,7.97,pH,7.97,pH,7.97,pH,4.39,mS/cm,4.4,mS/cm,4.39,mS/cm,18.6,�C,18.7,�C,18.6,�C
2023/11/22,21:11:00,7.97,pH,7.97,pH,7.97,pH,4.39,mS/cm,4.4,mS/cm,4.39,mS/cm,18.6,�C,18.6,�C,18.6,�C
2023/11/22,21:26:00,7.97,pH,7.97,pH,7.97,pH,4.4,mS/cm,4.4,mS/cm,4.4,mS/cm,18.5,�C,18.6,�C,18.5,�C
2023/11/22,21:41:00,7.97,pH,7.97,pH,7.97,pH,4.39,mS/cm,4.4,mS/cm,4.39,mS/cm,18.5,�C,18.5,�C,18.5,�C
2023/11/22,21:56:00,7.97,pH,7.97,pH,7.97,pH,4.4,mS/cm,4.4,mS/cm,4.4,mS/cm,18.4,�C,18.5,�C,18.4,�C
2023/11/22,22:11:00,7.97,pH,7.98,pH,7.97,pH,4.39,mS/cm,4.4,mS/cm,4.39,mS/cm,18.4,�C,18.4,�C,18.4,�C
2023/11/22,22:26:00,7.97,pH,7.97,pH,7.97,pH,4.39,mS/cm,4.4,mS/cm,4.39,mS/cm,18.3,�C,18.4,�C,18.3,�C
2023/11/22,22:41:00,7.97,pH,7.97,pH,7.97,pH,4.4,mS/cm,4.4,mS/cm,4.4,mS/cm,18.3,�C,18.3,�C,18.3,�C
2023/11/22,22:56:00,7.97,pH,7.97,pH,7.97,pH,4.4,mS/cm,4.41,mS/cm,4.4,mS/cm,18.2,�C,18.3,�C,18.2,�C
2023/11/22,23:11:00,7.97,pH,7.97,pH,7.97,pH,4.41,mS/cm,4.41,mS/cm,4.41,mS/cm,18.2,�C,18.2,�C,18.2,�C
2023/11/22,23:26:00,7.96,pH,7.97,pH,7.96,pH,4.4,mS/cm,4.41,mS/cm,4.4,mS/cm,18.1,�C,18.2,�C,18.2,�C
2023/11/22,23:41:00,7.96,pH,7.97,pH,7.96,pH,4.4,mS/cm,4.41,mS/cm,4.4,mS/cm,18.1,�C,18.1,�C,18.1,�C
2023/11/22,23:56:00,7.96,pH,7.96,pH,7.96,pH,4.4,mS/cm,4.41,mS/cm,4.4,mS/cm,18.1,�C,18.1,�C,18.1,�C
2023/11/23,0:11:00,7.96,pH,7.96,pH,7.96,pH,4.4,mS/cm,4.41,mS/cm,4.4,mS/cm,18,�C,18.1,�C,18,�C
2023/11/23,0:26:00,7.95,pH,7.96,pH,7.95,pH,4.4,mS/cm,4.41,mS/cm,4.4,mS/cm,18,�C,18,�C,18,�C
2023/11/23,0:41:00,7.95,pH,7.96,pH,7.95,pH,4.39,mS/cm,4.43,mS/cm,4.4,mS/cm,17.9,�C,18,�C,18,�C
2023/11/23,0:56:00,7.95,pH,7.96,pH,7.95,pH,4.4,mS/cm,4.43,mS/cm,4.41,mS/cm,17.9,�C,17.9,�C,17.9,�C
2023/11/23,1:11:00,7.95,pH,7.96,pH,7.95,pH,4.4,mS/cm,4.41,mS/cm,4.4,mS/cm,17.9,�C,17.9,�C,17.9,�C
2023/11/23,1:26:00,7.95,pH,7.96,pH,7.95,pH,4.4,mS/cm,4.42,mS/cm,4.4,mS/cm,17.8,�C,17.9,�C,17.8,�C
2023/11/23,1:41:00,7.95,pH,7.96,pH,7.95,pH,4.4,mS/cm,4.42,mS/cm,4.41,mS/cm,17.8,�C,17.8,�C,17.8,�C
2023/11/23,1:56:00,7.95,pH,7.95,pH,7.95,pH,4.38,mS/cm,4.43,mS/cm,4.4,mS/cm,17.8,�C,17.8,�C,17.8,�C
2023/11/23,2:11:00,7.95,pH,7.95,pH,7.95,pH,4.39,mS/cm,4.44,mS/cm,4.41,mS/cm,17.7,�C,17.8,�C,17.7,�C
2023/11/23,2:26:00,7.95,pH,7.95,pH,7.95,pH,4.4,mS/cm,4.41,mS/cm,4.4,mS/cm,17.7,�C,17.7,�C,17.7,�C
2023/11/23,2:41:00,7.95,pH,7.95,pH,7.95,pH,4.4,mS/cm,4.41,mS/cm,4.4,mS/cm,17.7,�C,17.7,�C,17.7,�C
2023/11/23,2:56:00,7.94,pH,7.95,pH,7.94,pH,4.4,mS/cm,4.41,mS/cm,4.4,mS/cm,17.7,�C,17.7,�C,17.7,�C
2023/11/23,3:11:00,7.73,pH,7.95,pH,7.89,pH,4.07,mS/cm,4.47,mS/cm,4.4,mS/cm,17.6,�C,17.8,�C,17.7,�C
2023/11/23,3:26:00,7.87,pH,7.9,pH,7.89,pH,4.39,mS/cm,4.41,mS/cm,4.4,mS/cm,17.7,�C,17.8,�C,17.7,�C
2023/11/23,3:41:00,7.89,pH,7.9,pH,7.89,pH,4.41,mS/cm,4.43,mS/cm,4.41,mS/cm,17.8,�C,17.8,�C,17.8,�C
2023/11/23,3:56:00,7.88,pH,7.89,pH,7.88,pH,4.43,mS/cm,4.47,mS/cm,4.45,mS/cm,17.8,�C,17.9,�C,17.8,�C
2023/11/23,4:11:00,7.88,pH,7.89,pH,7.88,pH,4.47,mS/cm,4.48,mS/cm,4.47,mS/cm,17.8,�C,17.9,�C,17.8,�C
2023/11/23,4:26:00,7.88,pH,7.89,pH,7.88,pH,4.46,mS/cm,4.48,mS/cm,4.47,mS/cm,17.8,�C,17.9,�C,17.8,�C
2023/11/23,4:41:00,7.89,pH,7.9,pH,7.89,pH,4.46,mS/cm,4.47,mS/cm,4.46,mS/cm,17.9,�C,17.9,�C,17.9,�C
2023/11/23,4:56:00,7.9,pH,7.91,pH,7.9,pH,4.46,mS/cm,4.48,mS/cm,4.46,mS/cm,17.9,�C,18,�C,17.9,�C
2023/11/23,5:11:00,7.91,pH,7.92,pH,7.91,pH,4.45,mS/cm,4.47,mS/cm,4.46,mS/cm,18,�C,18,�C,18,�C
2023/11/23,5:26:00,7.92,pH,7.92,pH,7.92,pH,4.45,mS/cm,4.46,mS/cm,4.45,mS/cm,18,�C,18,�C,18,�C
2023/11/23,5:41:00,7.92,pH,7.92,pH,7.92,pH,4.45,mS/cm,4.46,mS/cm,4.45,mS/cm,18,�C,18,�C,18,�C
2023/11/23,5:56:00,7.92,pH,7.93,pH,7.92,pH,4.42,mS/cm,4.46,mS/cm,4.45,mS/cm,18,�C,18,�C,18,�C
2023/11/23,6:11:00,7.92,pH,7.94,pH,7.93,pH,4.41,mS/cm,4.44,mS/cm,4.42,mS/cm,18,�C,18.1,�C,18,�C
2023/11/23,6:26:00,7.93,pH,7.93,pH,7.93,pH,4.41,mS/cm,4.43,mS/cm,4.42,mS/cm,18,�C,18.1,�C,18.1,�C
2023/11/23,6:41:00,7.93,pH,7.93,pH,7.93,pH,4.42,mS/cm,4.51,mS/cm,4.46,mS/cm,18.1,�C,18.2,�C,18.2,�C
2023/11/23,6:56:00,7.93,pH,7.94,pH,7.93,pH,4.49,mS/cm,4.51,mS/cm,4.49,mS/cm,18.2,�C,18.7,�C,18.4,�C
2023/11/23,7:11:00,7.93,pH,7.94,pH,7.93,pH,4.48,mS/cm,4.5,mS/cm,4.48,mS/cm,18.7,�C,19.3,�C,19,�C
2023/11/23,7:26:00,7.93,pH,7.95,pH,7.93,pH,4.47,mS/cm,4.49,mS/cm,4.47,mS/cm,19.3,�C,19.8,�C,19.5,�C
2023/11/23,7:41:00,7.93,pH,7.94,pH,7.93,pH,4.46,mS/cm,4.48,mS/cm,4.47,mS/cm,19.8,�C,20.1,�C,20,�C
2023/11/23,7:56:00,7.92,pH,7.94,pH,7.93,pH,4.46,mS/cm,4.48,mS/cm,4.46,mS/cm,20.1,�C,20.5,�C,20.3,�C
2023/11/23,8:11:00,7.92,pH,7.92,pH,7.92,pH,4.46,mS/cm,4.47,mS/cm,4.46,mS/cm,20.5,�C,20.7,�C,20.6,�C
2023/11/23,8:26:00,7.91,pH,7.92,pH,7.91,pH,4.45,mS/cm,4.47,mS/cm,4.46,mS/cm,20.7,�C,20.9,�C,20.8,�C
2023/11/23,8:41:00,7.91,pH,7.99,pH,7.91,pH,4.45,mS/cm,4.48,mS/cm,4.46,mS/cm,20.9,�C,21.2,�C,21,�C
2023/11/23,8:56:00,7.94,pH,7.99,pH,7.96,pH,4.44,mS/cm,4.48,mS/cm,4.45,mS/cm,21.2,�C,21.3,�C,21.2,�C
2023/11/23,9:11:00,7.94,pH,7.99,pH,7.95,pH,4.45,mS/cm,4.47,mS/cm,4.45,mS/cm,21.2,�C,21.3,�C,21.2,�C
2023/11/23,9:26:00,7.97,pH,8.06,pH,8.02,pH,4.45,mS/cm,4.46,mS/cm,4.45,mS/cm,21.3,�C,21.4,�C,21.3,�C
2023/11/23,9:41:00,8,pH,8.09,pH,8.01,pH,4.45,mS/cm,4.46,mS/cm,4.45,mS/cm,21.3,�C,21.3,�C,21.3,�C
2023/11/23,9:56:00,8.03,pH,8.08,pH,8.05,pH,4.44,mS/cm,4.46,mS/cm,4.45,mS/cm,21.3,�C,21.4,�C,21.3,�C
2023/11/23,10:11:00,8.01,pH,8.03,pH,8.01,pH,4.45,mS/cm,4.46,mS/cm,4.45,mS/cm,21.3,�C,21.5,�C,21.4,�C
2023/11/23,10:26:00,7.99,pH,8.01,pH,7.99,pH,4.45,mS/cm,4.46,mS/cm,4.45,mS/cm,21.3,�C,21.4,�C,21.4,�C
2023/11/23,10:41:00,7.98,pH,8,pH,7.99,pH,3.49,mS/cm,4.46,mS/cm,4.45,mS/cm,21.4,�C,21.5,�C,21.4,�C
2023/11/23,10:56:00,7.95,pH,7.99,pH,7.97,pH,4.45,mS/cm,4.47,mS/cm,4.45,mS/cm,21.5,�C,21.7,�C,21.6,�C
2023/11/23,11:11:00,7.94,pH,7.97,pH,7.95,pH,4.45,mS/cm,4.47,mS/cm,4.46,mS/cm,21.6,�C,21.7,�C,21.7,�C
2023/11/23,11:26:00,7.93,pH,7.94,pH,7.93,pH,4.46,mS/cm,4.47,mS/cm,4.46,mS/cm,21.6,�C,21.6,�C,21.6,�C
2023/11/23,11:41:00,7.92,pH,7.97,pH,7.94,pH,4.45,mS/cm,4.47,mS/cm,4.46,mS/cm,21.6,�C,21.8,�C,21.7,�C
2023/11/23,11:56:00,7.93,pH,7.97,pH,7.94,pH,4.45,mS/cm,4.47,mS/cm,4.46,mS/cm,21.7,�C,21.8,�C,21.7,�C
2023/11/23,12:11:00,7.92,pH,7.95,pH,7.93,pH,4.46,mS/cm,4.46,mS/cm,4.46,mS/cm,21.7,�C,21.7,�C,21.7,�C
2023/11/23,12:26:00,7.95,pH,8.02,pH,7.98,pH,4.45,mS/cm,4.47,mS/cm,4.46,mS/cm,21.6,�C,21.7,�C,21.7,�C
2023/11/23,12:41:00,7.96,pH,8.03,pH,7.98,pH,4.46,mS/cm,4.47,mS/cm,4.46,mS/cm,21.6,�C,21.7,�C,21.6,�C
2023/11/23,12:56:00,8.01,pH,8.11,pH,8.04,pH,4.45,mS/cm,4.46,mS/cm,4.45,mS/cm,21.6,�C,21.6,�C,21.6,�C
2023/11/23,13:11:00,8.02,pH,8.04,pH,8.02,pH,4.45,mS/cm,4.47,mS/cm,4.45,mS/cm,21.5,�C,21.6,�C,21.5,�C
2023/11/23,13:26:00,8.01,pH,8.03,pH,8.02,pH,4.45,mS/cm,4.47,mS/cm,4.45,mS/cm,21.5,�C,21.5,�C,21.5,�C
2023/11/23,13:41:00,8,pH,8.04,pH,8.01,pH,4.46,mS/cm,4.46,mS/cm,4.46,mS/cm,21.4,�C,21.5,�C,21.4,�C
2023/11/23,13:56:00,8.01,pH,8.05,pH,8.02,pH,4.45,mS/cm,4.46,mS/cm,4.45,mS/cm,21.3,�C,21.4,�C,21.3,�C
2023/11/23,14:11:00,8.03,pH,8.05,pH,8.03,pH,4.45,mS/cm,4.47,mS/cm,4.46,mS/cm,21.2,�C,21.3,�C,21.3,�C
2023/11/23,14:26:00,8.02,pH,8.04,pH,8.03,pH,4.46,mS/cm,4.46,mS/cm,4.46,mS/cm,21.2,�C,21.3,�C,21.2,�C
2023/11/23,14:41:00,8.02,pH,8.04,pH,8.02,pH,4.46,mS/cm,4.47,mS/cm,4.46,mS/cm,21.1,�C,21.2,�C,21.1,�C
2023/11/23,14:56:00,8.02,pH,8.04,pH,8.03,pH,4.45,mS/cm,4.47,mS/cm,4.46,mS/cm,21,�C,21.1,�C,21.1,�C
2023/11/23,15:11:00,8.01,pH,8.04,pH,8.01,pH,4.46,mS/cm,4.47,mS/cm,4.46,mS/cm,21,�C,21,�C,21,�C
2023/11/23,15:26:00,8.02,pH,8.05,pH,8.03,pH,4.42,mS/cm,4.47,mS/cm,4.46,mS/cm,20.9,�C,21,�C,20.9,�C
2023/11/23,15:41:00,8.02,pH,8.04,pH,8.03,pH,4.46,mS/cm,4.47,mS/cm,4.46,mS/cm,20.8,�C,20.9,�C,20.8,�C
2023/11/23,15:56:00,8.03,pH,8.04,pH,8.03,pH,4.46,mS/cm,4.47,mS/cm,4.46,mS/cm,20.7,�C,20.8,�C,20.8,�C
2023/11/23,16:11:00,8.02,pH,8.04,pH,8.03,pH,4.43,mS/cm,4.47,mS/cm,4.46,mS/cm,20.7,�C,20.7,�C,20.7,�C
2023/11/23,16:26:00,8.02,pH,8.03,pH,8.02,pH,4,mS/cm,4.47,mS/cm,4.46,mS/cm,20.6,�C,20.7,�C,20.6,�C
2023/11/23,16:41:00,8.02,pH,8.04,pH,8.03,pH,4.46,mS/cm,4.47,mS/cm,4.46,mS/cm,20.5,�C,20.6,�C,20.6,�C
2023/11/23,16:56:00,8.01,pH,8.04,pH,8.02,pH,4.46,mS/cm,4.47,mS/cm,4.46,mS/cm,20.5,�C,20.5,�C,20.5,�C
2023/11/23,17:11:00,8.02,pH,8.04,pH,8.03,pH,4.45,mS/cm,4.47,mS/cm,4.46,mS/cm,20.4,�C,20.5,�C,20.4,�C
2023/11/23,17:26:00,8.02,pH,8.04,pH,8.02,pH,4.45,mS/cm,4.47,mS/cm,4.46,mS/cm,20.3,�C,20.4,�C,20.3,�C
2023/11/23,17:41:00,8.03,pH,8.04,pH,8.03,pH,4.43,mS/cm,4.47,mS/cm,4.46,mS/cm,20.2,�C,20.3,�C,20.3,�C
2023/11/23,17:56:00,8.02,pH,8.04,pH,8.02,pH,3.09,mS/cm,4.47,mS/cm,4.46,mS/cm,20.2,�C,20.2,�C,20.2,�C
2023/11/23,18:11:00,8.03,pH,8.04,pH,8.03,pH,4.44,mS/cm,4.47,mS/cm,4.46,mS/cm,20.1,�C,20.2,�C,20.1,�C
2023/11/23,18:26:00,8.02,pH,8.04,pH,8.03,pH,4.45,mS/cm,4.47,mS/cm,4.46,mS/cm,20,�C,20.1,�C,20.1,�C
2023/11/23,18:41:00,8.02,pH,8.04,pH,8.03,pH,4.46,mS/cm,4.47,mS/cm,4.46,mS/cm,20,�C,20,�C,20,�C
2023/11/23,18:56:00,8.03,pH,8.04,pH,8.03,pH,4.46,mS/cm,4.47,mS/cm,4.46,mS/cm,19.9,�C,20,�C,19.9,�C
2023/11/23,19:11:00,8.03,pH,8.04,pH,8.03,pH,4.46,mS/cm,4.47,mS/cm,4.46,mS/cm,19.8,�C,19.9,�C,19.9,�C
2023/11/23,19:26:00,8.02,pH,8.03,pH,8.02,pH,4.47,mS/cm,4.47,mS/cm,4.47,mS/cm,19.8,�C,19.8,�C,19.8,�C
2023/11/23,19:41:00,8.02,pH,8.03,pH,8.02,pH,4.46,mS/cm,4.47,mS/cm,4.46,mS/cm,19.7,�C,19.8,�C,19.7,�C
2023/11/23,19:56:00,8.02,pH,8.03,pH,8.02,pH,4.46,mS/cm,4.47,mS/cm,4.46,mS/cm,19.7,�C,19.7,�C,19.7,�C
2023/11/23,20:11:00,8.02,pH,8.03,pH,8.02,pH,4.46,mS/cm,4.48,mS/cm,4.46,mS/cm,19.6,�C,19.7,�C,19.6,�C
2023/11/23,20:26:00,8.02,pH,8.03,pH,8.02,pH,4.47,mS/cm,4.48,mS/cm,4.47,mS/cm,19.5,�C,19.6,�C,19.6,�C
2023/11/23,20:41:00,8.02,pH,8.03,pH,8.02,pH,4.47,mS/cm,4.47,mS/cm,4.47,mS/cm,19.5,�C,19.5,�C,19.5,�C
2023/11/23,20:56:00,8.01,pH,8.03,pH,8.01,pH,4.47,mS/cm,4.48,mS/cm,4.47,mS/cm,19.4,�C,19.5,�C,19.4,�C
2023/11/23,21:11:00,8.01,pH,8.03,pH,8.02,pH,4.47,mS/cm,4.48,mS/cm,4.47,mS/cm,19.3,�C,19.4,�C,19.4,�C
2023/11/23,21:26:00,8.02,pH,8.03,pH,8.02,pH,4.47,mS/cm,4.48,mS/cm,4.47,mS/cm,19.3,�C,19.3,�C,19.3,�C
2023/11/23,21:41:00,8.02,pH,8.03,pH,8.02,pH,4.47,mS/cm,4.48,mS/cm,4.47,mS/cm,19.2,�C,19.3,�C,19.3,�C
2023/11/23,21:56:00,8,pH,8.03,pH,8.01,pH,4.47,mS/cm,4.48,mS/cm,4.47,mS/cm,19.2,�C,19.2,�C,19.2,�C
2023/11/23,22:11:00,8.02,pH,8.03,pH,8.02,pH,4.47,mS/cm,4.48,mS/cm,4.47,mS/cm,19.1,�C,19.2,�C,19.1,�C
2023/11/23,22:26:00,8.01,pH,8.03,pH,8.01,pH,4.47,mS/cm,4.47,mS/cm,4.47,mS/cm,19.1,�C,19.1,�C,19.1,�C
2023/11/23,22:41:00,8.01,pH,8.03,pH,8.01,pH,4.47,mS/cm,4.48,mS/cm,4.47,mS/cm,19,�C,19.1,�C,19,�C
2023/11/23,22:56:00,8.01,pH,8.03,pH,8.01,pH,4.47,mS/cm,4.48,mS/cm,4.47,mS/cm,18.9,�C,19,�C,19,�C
2023/11/23,23:11:00,8.01,pH,8.03,pH,8.02,pH,4.47,mS/cm,4.48,mS/cm,4.47,mS/cm,18.9,�C,18.9,�C,18.9,�C
2023/11/23,23:26:00,8.01,pH,8.03,pH,8.02,pH,4.46,mS/cm,4.48,mS/cm,4.47,mS/cm,18.8,�C,18.9,�C,18.9,�C
2023/11/23,23:41:00,8.01,pH,8.02,pH,8.01,pH,4.47,mS/cm,4.48,mS/cm,4.47,mS/cm,18.8,�C,18.8,�C,18.8,�C
2023/11/23,23:56:00,8,pH,8.02,pH,8.01,pH,4.47,mS/cm,4.48,mS/cm,4.47,mS/cm,18.7,�C,18.8,�C,18.7,�C
2023/11/24,0:11:00,8,pH,8.01,pH,8,pH,4.47,mS/cm,4.48,mS/cm,4.47,mS/cm,18.7,�C,18.7,�C,18.7,�C
2023/11/24,0:26:00,7.99,pH,8.01,pH,7.99,pH,4.47,mS/cm,4.49,mS/cm,4.47,mS/cm,18.6,�C,18.7,�C,18.6,�C
2023/11/24,0:41:00,7.99,pH,8.01,pH,8,pH,4.46,mS/cm,4.48,mS/cm,4.47,mS/cm,18.6,�C,18.6,�C,18.6,�C
2023/11/24,0:56:00,7.99,pH,8.01,pH,7.99,pH,4.46,mS/cm,4.5,mS/cm,4.47,mS/cm,18.5,�C,18.6,�C,18.5,�C
2023/11/24,1:11:00,7.99,pH,8,pH,7.99,pH,4.46,mS/cm,4.49,mS/cm,4.47,mS/cm,18.5,�C,18.5,�C,18.5,�C
2023/11/24,1:26:00,7.99,pH,8.01,pH,7.99,pH,4.46,mS/cm,4.48,mS/cm,4.47,mS/cm,18.4,�C,18.5,�C,18.4,�C
2023/11/24,1:41:00,7.98,pH,8.01,pH,8,pH,4.47,mS/cm,4.49,mS/cm,4.47,mS/cm,18.4,�C,18.4,�C,18.4,�C
2023/11/24,1:56:00,7.97,pH,7.98,pH,7.97,pH,4.47,mS/cm,4.48,mS/cm,4.47,mS/cm,18.4,�C,18.4,�C,18.4,�C
2023/11/24,2:11:00,7.97,pH,7.98,pH,7.97,pH,4.47,mS/cm,4.48,mS/cm,4.47,mS/cm,18.3,�C,18.4,�C,18.3,�C
2023/11/24,2:26:00,7.97,pH,7.98,pH,7.97,pH,4.47,mS/cm,4.48,mS/cm,4.47,mS/cm,18.3,�C,18.3,�C,18.3,�C
2023/11/24,2:41:00,7.95,pH,8.01,pH,7.97,pH,4.44,mS/cm,4.49,mS/cm,4.47,mS/cm,18.2,�C,18.3,�C,18.3,�C
2023/11/24,2:56:00,7.91,pH,7.98,pH,7.91,pH,4.24,mS/cm,4.55,mS/cm,4.51,mS/cm,18.2,�C,18.3,�C,18.2,�C
2023/11/24,3:11:00,7.92,pH,7.93,pH,7.92,pH,4.48,mS/cm,4.55,mS/cm,4.5,mS/cm,18.2,�C,19.1,�C,18.4,�C
2023/11/24,3:26:00,7.9,pH,7.92,pH,7.9,pH,4.52,mS/cm,4.56,mS/cm,4.54,mS/cm,19.1,�C,20,�C,19.7,�C
2023/11/24,3:41:00,7.91,pH,7.92,pH,7.91,pH,4.52,mS/cm,4.59,mS/cm,4.55,mS/cm,19.2,�C,19.9,�C,19.4,�C
2023/11/24,3:56:00,7.91,pH,7.92,pH,7.91,pH,4.52,mS/cm,4.54,mS/cm,4.52,mS/cm,19.3,�C,19.6,�C,19.5,�C
2023/11/24,4:11:00,7.91,pH,7.92,pH,7.91,pH,4.52,mS/cm,4.53,mS/cm,4.52,mS/cm,19.6,�C,19.7,�C,19.7,�C
2023/11/24,4:26:00,7.92,pH,7.93,pH,7.92,pH,4.52,mS/cm,4.56,mS/cm,4.53,mS/cm,19.7,�C,19.7,�C,19.7,�C
2023/11/24,4:41:00,7.92,pH,7.92,pH,7.92,pH,4.52,mS/cm,4.54,mS/cm,4.53,mS/cm,19.7,�C,19.8,�C,19.8,�C
2023/11/24,4:56:00,7.92,pH,7.93,pH,7.92,pH,4.52,mS/cm,4.54,mS/cm,4.53,mS/cm,19.7,�C,19.8,�C,19.7,�C
2023/11/24,5:11:00,7.93,pH,7.93,pH,7.93,pH,4.52,mS/cm,4.54,mS/cm,4.53,mS/cm,19.6,�C,19.7,�C,19.7,�C
2023/11/24,5:26:00,7.93,pH,7.95,pH,7.93,pH,4.52,mS/cm,4.54,mS/cm,4.53,mS/cm,19.6,�C,19.7,�C,19.6,�C
2023/11/24,5:41:00,7.93,pH,7.94,pH,7.93,pH,4.52,mS/cm,4.54,mS/cm,4.53,mS/cm,19.6,�C,19.6,�C,19.6,�C
2023/11/24,5:56:00,7.93,pH,7.97,pH,7.94,pH,4.52,mS/cm,4.54,mS/cm,4.52,mS/cm,19.6,�C,19.7,�C,19.6,�C
2023/11/24,6:11:00,7.95,pH,7.97,pH,7.95,pH,4.52,mS/cm,4.54,mS/cm,4.53,mS/cm,19.6,�C,19.7,�C,19.7,�C
2023/11/24,6:26:00,7.95,pH,7.95,pH,7.95,pH,4.53,mS/cm,4.54,mS/cm,4.53,mS/cm,19.7,�C,19.9,�C,19.8,�C
2023/11/24,6:41:00,7.95,pH,7.96,pH,7.95,pH,4.52,mS/cm,4.54,mS/cm,4.53,mS/cm,19.9,�C,20.1,�C,20,�C
2023/11/24,6:56:00,7.94,pH,7.95,pH,7.94,pH,4.52,mS/cm,4.54,mS/cm,4.53,mS/cm,20.1,�C,20.6,�C,20.3,�C
2023/11/24,7:11:00,7.93,pH,7.96,pH,7.94,pH,4.47,mS/cm,4.54,mS/cm,4.53,mS/cm,20.5,�C,21,�C,20.7,�C
2023/11/24,7:26:00,7.93,pH,7.96,pH,7.95,pH,4.53,mS/cm,4.54,mS/cm,4.53,mS/cm,20.8,�C,21,�C,20.9,�C
2023/11/24,7:41:00,7.95,pH,7.96,pH,7.95,pH,4.53,mS/cm,4.54,mS/cm,4.53,mS/cm,20.9,�C,21,�C,20.9,�C
2023/11/24,7:56:00,7.94,pH,7.96,pH,7.95,pH,4.53,mS/cm,4.55,mS/cm,4.53,mS/cm,20.9,�C,20.9,�C,20.9,�C
2023/11/24,8:11:00,7.94,pH,7.96,pH,7.95,pH,4.53,mS/cm,4.57,mS/cm,4.53,mS/cm,20.9,�C,21.1,�C,21,�C
2023/11/24,8:26:00,7.92,pH,7.94,pH,7.93,pH,4.52,mS/cm,4.57,mS/cm,4.54,mS/cm,21.1,�C,21.2,�C,21.1,�C
2023/11/24,8:41:00,7.91,pH,7.93,pH,7.91,pH,4.53,mS/cm,4.55,mS/cm,4.53,mS/cm,21.2,�C,21.3,�C,21.2,�C
2023/11/24,8:56:00,7.93,pH,7.98,pH,7.95,pH,4.53,mS/cm,4.54,mS/cm,4.53,mS/cm,21.3,�C,21.4,�C,21.3,�C
2023/11/24,9:11:00,7.94,pH,7.97,pH,7.96,pH,4.54,mS/cm,4.54,mS/cm,4.54,mS/cm,21.3,�C,21.3,�C,21.3,�C
2023/11/24,9:26:00,7.96,pH,7.98,pH,7.96,pH,4.54,mS/cm,4.55,mS/cm,4.54,mS/cm,21.2,�C,21.3,�C,21.2,�C
2023/11/24,9:41:00,7.97,pH,7.99,pH,7.98,pH,4.54,mS/cm,4.55,mS/cm,4.54,mS/cm,21.1,�C,21.2,�C,21.1,�C
2023/11/24,9:56:00,7.98,pH,7.99,pH,7.98,pH,4.54,mS/cm,4.55,mS/cm,4.54,mS/cm,21.1,�C,21.1,�C,21.1,�C
2023/11/24,10:11:00,7.98,pH,7.98,pH,7.98,pH,4.54,mS/cm,4.55,mS/cm,4.54,mS/cm,21,�C,21.1,�C,21,�C
2023/11/24,10:26:00,7.97,pH,7.99,pH,7.98,pH,4.54,mS/cm,4.55,mS/cm,4.54,mS/cm,20.9,�C,21,�C,20.9,�C
2023/11/24,10:41:00,7.98,pH,7.99,pH,7.98,pH,4.54,mS/cm,4.55,mS/cm,4.54,mS/cm,20.8,�C,20.9,�C,20.8,�C
2023/11/24,10:56:00,7.98,pH,7.98,pH,7.98,pH,4.52,mS/cm,4.55,mS/cm,4.54,mS/cm,20.7,�C,20.8,�C,20.7,�C